Flag for Germany Weather past 2 weeks in Verden (Aller), Lower Saxony, Germany

Now
82 °F

Broken clouds.


Feels Like: 82 °F
Forecast: 62 / 80 °F
Wind: 10 mph from Northeast

Location: Bremen Airport

Current Time: Jul 22, 2014 at 4:14:18 PM

Latest Report: Jul 22, 2014 at 3:50 PM


Visibility: N/A

Pressure: 30.07 "Hg

Humidity: 45%

Dew point: 59 °F

Location of Verden (Aller)Location

Historic Weather in Verden (Aller) — Graph

°F

Verden (Aller) temperature yesterday

Maximum temperature yesterday: 81 °F (at 4:50 PM)
Minimum temperature yesterday: 68 °F (at 3:50 AM)
Average temperature yesterday: 73 °F

Past Weeks' High & Low Weather Summary

 TemperatureHumidityPressure
High90 °F (Jul 19, 1:50 PM)100% (Jul 8, 5:50 PM)30.18 "Hg (Jul 8, 5:50 PM)
Low54 °F (Jul 17, 4:50 AM)27% (Jul 19, 4:20 PM)29.59 "Hg (Jul 9, 2:50 PM)
Average69 °F72%29.92 "Hg
* Reported Jul 7 2:20 PM — Jul 22 2:50 PM, Verden (Aller), Weather by CustomWeather, © 2014

Note: Actual official high and low records may vary slightly from our data, if they occured in-between our weather recording intervals... More about our weather records

Advertising

Verden (Aller) weather history for previous 24 hours

 ConditionsComfort  
Time TempWeatherWind HumidityBarometerVisibility
2:50 PM
Jul 22
79 °FBroken clouds.10 mph48%30.07 "HgN/A
2:20 PM81 °FBroken clouds.10 mph48%30.07 "HgN/A
1:50 PM79 °FBroken clouds.15 mph54%30.07 "HgN/A
1:20 PM79 °FPartly sunny.10 mph54%30.07 "HgN/A
12:50 PM77 °FPartly sunny.12 mph57%30.07 "HgN/A
12:20 PM75 °FPartly sunny.12 mph61%30.07 "HgN/A
11:50 AM75 °FPartly sunny.13 mph61%30.07 "HgN/A
11:20 AM75 °FPartly sunny.13 mph65%30.07 "HgN/A
10:50 AM72 °FPartly sunny.13 mph73%30.07 "HgN/A
10:20 AM72 °FBroken clouds.14 mph69%30.07 "HgN/A
9:50 AM70 °FBroken clouds.15 mph73%30.07 "HgN/A
9:20 AM70 °FPartly sunny.14 mph73%30.07 "HgN/A
8:50 AM68 °FPartly sunny.12 mph83%30.07 "HgN/A
8:20 AM66 °FPartly sunny.12 mph88%30.07 "HgN/A
7:50 AM64 °FPartly sunny.10 mph94%30.04 "HgN/A
7:20 AM63 °FBroken clouds.9 mph94%30.04 "Hg5 mi
6:50 AM63 °FBroken clouds.12 mph94%30.04 "Hg4 mi
6:20 AM63 °FFog.9 mph94%30.04 "Hg3 mi
5:50 AM61 °FFog.10 mph94%30.04 "Hg3 mi
5:20 AM61 °FPassing clouds.8 mph94%30.01 "Hg4 mi
4:50 AM61 °FPassing clouds.7 mph94%30.01 "Hg6 mi
4:20 AM63 °FClear.8 mph88%30.01 "Hg10 mi
3:50 AM63 °FClear.10 mph88%30.01 "Hg10 mi
3:20 AM63 °FClear.9 mph88%30.01 "Hg10 mi
2:50 AM63 °FClear.10 mph88%30.01 "Hg10 mi
2:20 AM64 °FClear.9 mph83%30.01 "Hg10 mi
1:50 AM66 °FClear.9 mph83%30.01 "Hg10 mi
1:20 AM66 °FClear.10 mph78%29.98 "Hg10 mi
12:50 AM66 °FClear.12 mph83%29.98 "Hg10 mi
12:20 AM68 °FClear.13 mph73%29.98 "Hg10 mi
11:20 PM
Jul 21
70 °FClear.12 mph69%29.95 "Hg10 mi
10:50 PM72 °FClear.13 mph65%29.95 "Hg10 mi
10:20 PM73 °FSunny.12 mph61%29.95 "Hg10 mi
9:50 PM73 °FSunny.13 mph61%29.95 "Hg10 mi
9:20 PM75 °FSunny.13 mph57%29.92 "Hg10 mi
8:50 PM77 °FSunny.13 mph57%29.92 "Hg10 mi
8:20 PM77 °FSunny.13 mph57%29.92 "Hg10 mi
7:50 PM79 °FBroken clouds.12 mph58%29.92 "HgN/A
7:20 PM79 °FPartly sunny.13 mph61%29.89 "HgN/A
6:50 PM81 °FPartly sunny.9 mph62%29.89 "HgN/A
6:20 PM81 °FPartly sunny.9 mph58%29.89 "HgN/A
5:50 PM81 °FBroken clouds.7 mph62%29.89 "HgN/A
5:20 PM81 °FPartly sunny.5 mph62%29.86 "HgN/A
4:50 PM81 °FPartly sunny.6 mph62%29.86 "HgN/A
4:20 PM79 °FPartly sunny.6 mph61%29.86 "HgN/A
Weather by CustomWeather, © 2014

See weather overviewHow to use our weather pages